Regional Weather Roundup
Issued by NWS Grand Forks, ND

Home | Current Version | Previous Version | Graphics & Text | Print | Product List | Glossary On
Versions: 1 2 3 4 5 6 7 8 9 10 11 12 13 14 15 16 17 18 19 20 21 22 23 24 25 26 27 28 29 30 31 32 33 34 35 36 37 38 39 40 41 42 43 44 45 46 47 48 49 50
000
ASUS43 KFGF 230910
RWRFGF
PRAIRIE TO PINES  WEATHER ROUNDUP
NATIONAL WEATHER SERVICE EASTERN NORTH DAKOTA/GRAND FORKS ND
400 AM CDT SUN APR 23 2017

 **SATELLITE DATA USED TO AUGMENT SKY COVER AT AUTOMATED STATIONS**
 *****  WEATHER ACROSS EASTERN NORTH DAKOTA  *****

CITY           SKY/WX    TMP DP  RH WIND       PRES   REMARKS
GRAND FORKS    CLOUDY    32  22  66 N14       30.24S WCI  22
GRAND FRKS AFB CLOUDY    30  18  61 NE16      30.23F WCI  18
DEVILS LAKE    CLOUDY    29  18  63 NE15      30.21F WCI  18
FARGO          CLOUDY    35  32  88 N16       30.17S
WAHPETON ARPT  PTSUNNY   37  34  87 N14       30.13R
$$

 ***** WEATHER ACROSS CENTRAL AND WESTERN NORTH DAKOTA  *****

CITY           SKY/WX    TMP DP  RH WIND       PRES   REMARKS
BISMARCK       CLOUDY    37  32  82 E18G26    30.11F
MINOT          FLURRIES  32  26  78 NE17      30.16F WCI  21
JAMESTOWN      CLOUDY    32  24  72 NE16G22   30.16F WCI  21
MINOT AFB      CLOUDY    31  26  82 E20       30.15F WCI  18
GARRISON         N/A     32  31  96 E16G26    30.11F WCI  21
WILLISTON      CLOUDY    36  28  73 E16       30.09F
DICKINSON      CLOUDY    33  30  88 E22G29    29.99F WCI  21
HETTINGER      CLOUDY    37  35  92 E21G28    29.97F
$$

 *****  OTHER AIRPORT OBSERVATIONS IN OUR AREA  *****

CITY           SKY/WX    TMP DP  RH WIND       PRES   REMARKS
WALHALLA       NOT AVBL
GRAFTON AIRPOR FAIR      28  19  69 N16       30.27F WCI  17
VALLEY CITY AR MIX PCPN  30  27  86 NE17G24   30.18S WCI  18
CANDO          NOT AVBL
CAVALIER APRT  PTSUNNY   28  19  69 NE10      30.28F WCI  19
GWINNER        CLOUDY    34  32  93 MISG      30.13F
SHEYENNE NWR     N/A     34  31  90 NE14      29.95S WCI  25
ROLLA          CLOUDY    27  14  59 NE17      30.22F WCI  14
 ***** THE ABOVE OBSERVATIONS ARE NON NWS ARE NOT QUALITY
       CONTROLLED AND MAY MIS-REPORT RAIN FOR SNOW...
$$

  *****  WEATHER ACROSS NORTHERN MINNESOTA  *****

CITY           SKY/WX    TMP DP  RH WIND       PRES   REMARKS
FLAG ISLAND    FAIR      30  16  55 NE18      30.26R WCI  18
WARROAD        FAIR      28  25  86 N12       30.25S WCI  18
ROSEAU         FAIR      28  21  74 N12       30.25S WCI  18
HALLOCK        FAIR      28  19  69 NE9       30.27S WCI  20
THF RVR FALLS  CLOUDY    31  24  75 NE16      30.23S WCI  20
BAUDETTE       FAIR      31  23  72 NE12      30.23S WCI  22
WASKISH        CLOUDY    32  28  86 NE6       30.21R
CROOKSTON      CLOUDY    32  25  74 NE10      30.23F WCI  24
STEPHEN NDAWN    N/A     28  18  64 NE12        N/A  WCI  18
GREENBUSH NDAW   N/A     28  21  74 NE12        N/A  WCI  18
$$
  *****  WEATHER ACROSS CENTRAL AND WEST MINNESOTA  *****

CITY           SKY/WX    TMP DP  RH WIND       PRES   REMARKS
FOSSTON        LGT SNOW  30  28  93 N10       30.19F WCI  21
BEMIDJI        CLOUDY    32  26  77 NE10      30.18R WCI  24
PARK RAPIDS    CLOUDY    37  31  78 NE12      30.13S
ELBOW LAKE     PTSUNNY   43  37  80 NE13      30.08F
WADENA         LGT RAIN  39  36  87 NE8       30.11F
DETROIT LAKES  RAIN      37  34  87 NE12G17   30.15R
MOORHEAD       CLOUDY    36  32  87 N14       30.17R
FERGUS FALLS   MOCLDY    41  36  81 NE13      30.11R
MORRIS MN      FAIR      39  37  93 W3        30.07S
STAPLES        CLOUDY    39  34  81 NE7       30.12S
$$
  *****  WEATHER ELSEWHERE ACROSS MINNESOTA  *****

CITY           SKY/WX    TMP DP  RH WIND       PRES   REMARKS
DULUTH         LGT RAIN  40  37  89 N9        30.11R
INTRNTL FALLS  MOCLDY    31  21  66 N13       30.22R WCI  21
ELY            CLOUDY    30  28  93 N6        30.14S WCI  24
CLOQUET        CLOUDY    41  36  81 N8        30.11F
WHEATON        FAIR      39  37  93 NW8       30.12S
BRAINERD       CLOUDY    42  35  76 NE10      30.12R
HIBBING        FLURRIES  33  33 100 NE8       30.14R
ALEXANDRIA     CLOUDY    44  38  79 NE10      30.09S
SAINT CLOUD    FAIR      48  41  76 N8        30.07R
MINNEAPOLIS    FAIR      52  35  52 SW6       30.07S
$$

  *****  WEATHER ACROSS SOUTH DAKOTA  *****

CITY           SKY/WX    TMP DP  RH WIND       PRES   REMARKS
SIOUX FALLS    FAIR      49  35  58 SW6       30.11F
BROOKINGS      FAIR      43  35  73 S8        30.08F
WATERTOWN      FAIR      43  36  76 CALM      30.07S
HURON          FAIR      47  37  68 S13       30.04F
SISSETON         N/A     38  36  92 N10       30.11S
ABERDEEN       FAIR      35  30  82 NE13      30.09F
MITCHELL       FAIR      49  36  61 S13       30.08F
PIERRE         FAIR      48  30  49 SW12      29.99F
MOBRIDGE       FAIR      38  32  79 E24G32    29.99S
RAPID CITY     FAIR      45  32  60 SE10      29.95F
$$

  *****  SOME WEATHER IN NEARBY STATES *****

CITY           SKY/WX    TMP DP  RH WIND       PRES   REMARKS
GLASGOW MT     CLOUDY    38  33  82 E24G31    29.95F
GREAT FALLS MT FAIR      42  38  85 CALM      29.83F
CHEYENNE WY    FAIR      33  29  85 W7        30.07F
SCOTTSBLUFF NE FAIR      49  31  49 S7G18     30.04F
OMAHA NE       FAIR      44  35  70 CALM      30.17S
DES MOINES IA  FAIR      47  30  51 CALM      30.17R
DAVENPORT IA   FAIR      37  31  78 CALM      30.15R
CHICAGO IL     FAIR      41  29  62 CALM      30.12S
EAU CLAIRE WI  FAIR      44  38  79 SW6       30.05S
LA CROSSE WI   FAIR      47  40  76 S7        30.10S
$$

  *****  SOME NATIONAL WEATHER *****

CITY           SKY/WX    TMP DP  RH WIND       PRES   REMARKS
LA GUARDIA NY  FAIR      49  35  58 N12       30.05R
RALEIGH NC     CLOUDY    55  53  93 NE7       29.97S
ATLANTA GA     MOCLDY    64  58  80 E7        29.83S
NEW ORLEANS LA FAIR      66  59  78 N8        29.88S
OKLAHOMA CITY  FAIR      46  40  79 N9        30.16F
ALBUQUERQUE NM FAIR      48  28  46 E18       30.22F
SALT LAKE CITY MOCLDY    52  33  48 SE9       29.91F
LOS ANGELES CA FAIR      62  55  77 SW7       29.84F
BOISE ID       MOCLDY    59  36  42 W7        29.83S
SEATTLE WA     FAIR      49  44  83 CALM      29.96S
$$

*** WEATHER ACROSS MANITOBA...SASKATCHEWAN AND ONTARIO ***
                ***ONTARIO***

CITY           SKY/WX    TMP DP  RH WIND       PRES   REMARKS
GERALDTON      LGT SNOW  21  18  86 N8        30.12R WCI  12
THUNDER BAY    CLOUDY    34  23  64 N9        30.16R
SIOUX LOOKOUT  CLEAR     21  12  68 N3        30.23R
TORONTO        CLEAR     37  27  65 SW3       30.08S
BIG TROUT LK   CLEAR      3  -4  72 NW8       30.25F WCI -10
PICKLE LAKE    NOT AVBL
DRYDEN         CLEAR     23  14  68 N6        30.23R WCI  16
KENORA         PTCLDY    23  12  63 N6        30.25S WCI  16
$$
                *** MANITOBA***

CITY           SKY/WX    TMP DP  RH WIND       PRES   REMARKS
BRANDON        CLOUDY    25  18  74 E7        30.27F WCI  17
DAUPHIN        MOCLDY    23  19  86 CALM      30.29F
ISLAND LAKE    CLEAR      7   1  78 CALM      30.33S
PILOT MOUND      N/A     27  12  54 NE14        N/A  WCI  15
THE PAS        PTCLDY    18   9  68 NE3       30.34S
THOMPSON       CLEAR     -8 -15  71 CALM      30.35F
WINNIPEG       MOCLDY    25  19  80 NE5       30.31S WCI  19
LYNN LAKE      CLEAR     -6  -9  84 NW3       30.32F
CHURCHILL      FLURRIES  -2  -6  84 NW10      30.33F WCI -19
GILLAM         CLEAR     -8 -13  77 CALM      30.35F
$$
                ***SASKATCHEWAN***

CITY           SKY/WX    TMP DP  RH WIND       PRES   REMARKS
ESTEVAN        FLURRIES  32  28  86 E12G18    30.16F WCI  23
KINDERSLEY     CLOUDY    32  28  86 E24G35    30.03F WCI  19
LLOYDMINSTER   MOCLDY    30  25  80 E9        30.11F WCI  22
PRINCE ALBERT  MOCLDY    25  18  74 E9        30.23F WCI  15
REGINA         CLOUDY    36  27  69 E16G22    30.13F
YORKTON        CLOUDY    30  23  74 SE7       30.23F WCI  23
N. BATTLEFORD  MOCLDY    30  23  74 E13       30.15F WCI  20
LA RONGE       CLEAR     16   9  73 NE6       30.30F WCI   7
SASKATOON      CLOUDY    34  21  60 E10       30.16F
SWIFT CURRENT  CLOUDY    37  34  87 SE17G24   30.00F
$$
NOTE: THESE ARE AUTOMATED STATIONS WITH LIMITED QUALITY CONTROL
      "FAIR" INDICATES FEW OR NO CLOUDS BELOW 12,000 FEET WITH NO
      SIGNIFICANT WEATHER AND/OR OBSTRUCTIONS TO VISIBILITY.
      SKY/WX - SKY CONDITION AND SIGNIFICANT WEATHER.
      TMP - AIR TEMPERATURE.    DP   - DEWPOINT TEMPERATURE.
      RH  - RELATIVE HUMIDITY.  PRES - PRESSURE.
      HX  - HEAT INDEX.         WCI  - WIND CHILL INDEX.
$




USA.gov is the U.S. government's official web portal to all federal, state and local government web resources and services.